Location: Clarks Summit,Pa.
(41.5000°N, 75.6000°W)
Time: 21:14:27
(UTC-05:00)

OTV 5 (USA 277) - Visible Passes

Search period start: 20 November 2018 00:00
Search period end: 30 November 2018 00:00
Orbit: 339 x 348 km, 54.5° (Epoch: 14 November)

Date Brightness Start Highest point End Pass type
(mag) Time Alt. Az. Time Alt. Az. Time Alt. Az.
24 Nov ? 06:10:50 10° SSW 06:13:26 31° SE 06:16:02 10° ENE visible
26 Nov ? 05:23:19 12° SSW 05:25:34 29° SE 05:28:08 10° ENE visible
27 Nov ? 05:47:27 25° WSW 05:48:58 71° NW 05:51:50 10° NE visible
28 Nov ? 04:39:38 14° ENE 04:39:38 14° ENE 04:40:13 10° ENE visible
28 Nov ? 06:11:06 17° WNW 06:12:34 24° NNW 06:15:00 10° NNE visible
29 Nov ? 05:03:00 18° NE 05:03:00 18° NE 05:03:55 10° NE visible
29 Nov ? 06:35:01 10° NW 06:36:22 13° NNW 06:37:44 10° N visible
